contact:dominique.lefevre@mio.osupytheas.fr, maurice.libes@osupytheas.fr
Project:EMSO Ligure-ouest http://www.emso-fr.org/EMSO-France
Sensor Aquadopp, line 13 Serial AQD14315 
DOI : "https://doi.org/10.17882/74513; https://doi.org/10.17882/83244" 
Title:EMSO Ligure Ouest : Data ligne ALBATROSS capteur AQUADOPP - deploiement 2021
Id,Date,Profondeur,Latitude,Longitude,X_East,Y_North,Z_Up,Amplitude_X,Amplitude_Y,Amplitude_Z,Batterie,SoundSpeed,Heading,Pitch,Roll,Pressure,Temperature,Speed,Direction
, , m, degrees North, degrees East, m.s-1, m.s-1,m.s-1, 1, 1, 1, Volt, m.s-1, degree, degree, degree, dbar, degree_C, m.s-1, degree
07,2022-07-04T23:30:00,1500.0,42.79,6.0312,-0.001,-0.005,0.003,56.0,59.0,53.0,13.4,1504.3,84.7,0.3,0.8,1475.303,13.19,0.005,191.3
07,2022-07-05T00:00:00,1500.0,42.79,6.0312,0.012,0.0,0.018,56.0,59.0,58.0,13.4,1504.3,89.4,0.2,0.9,1475.299,13.19,0.012,90.0
07,2022-07-05T00:30:00,1500.0,42.79,6.0312,0.015,-0.006,0.005,54.0,58.0,54.0,13.4,1504.3,94.4,0.2,0.7,1475.322,13.19,0.016,111.8
07,2022-07-05T01:00:00,1500.0,42.79,6.0312,0.012,-0.005,-0.006,56.0,56.0,54.0,13.4,1504.3,96.1,-0.1,1.1,1475.293,13.19,0.013,112.6
07,2022-07-05T01:30:00,1500.0,42.79,6.0312,0.009,-0.011,0.0,56.0,56.0,57.0,13.4,1504.3,97.9,0.1,0.8,1475.307,13.19,0.014,140.7
07,2022-07-05T02:00:00,1500.0,42.79,6.0312,0.01,-0.011,0.007,57.0,62.0,57.0,13.4,1504.3,102.9,-0.1,0.7,1475.221,13.19,0.014,137.7
07,2022-07-05T02:30:00,1500.0,42.79,6.0312,0.011,-0.009,0.002,56.0,58.0,57.0,13.4,1504.3,106.7,0.2,0.8,1475.247,13.19,0.014,129.3
07,2022-07-05T03:00:00,1500.0,42.79,6.0312,0.004,-0.012,0.003,56.0,56.0,57.0,13.4,1504.3,111.4,0.2,0.9,1475.232,13.19,0.012,161.6
07,2022-07-05T03:30:00,1500.0,42.79,6.0312,0.004,-0.004,-0.006,56.0,56.0,54.0,13.4,1504.3,114.9,0.1,1.0,1475.201,13.19,0.005,135.0
07,2022-07-05T04:00:00,1500.0,42.79,6.0312,0.011,-0.016,0.0,59.0,58.0,56.0,13.4,1504.3,123.2,0.3,1.0,1475.221,13.19,0.019,145.5
07,2022-07-05T04:30:00,1500.0,42.79,6.0312,0.012,-0.012,-0.001,57.0,55.0,58.0,13.4,1504.3,127.2,0.0,0.8,1475.216,13.19,0.016,135.0
07,2022-07-05T05:00:00,1500.0,42.79,6.0312,0.009,-0.011,-0.013,55.0,58.0,56.0,13.4,1504.3,132.6,-0.1,1.0,1475.204,13.19,0.014,140.7
07,2022-07-05T05:30:00,1500.0,42.79,6.0312,-0.002,-0.002,-0.016,57.0,56.0,55.0,13.4,1504.3,134.1,0.3,0.9,1475.161,13.19,0.002,225.0
07,2022-07-05T06:00:00,1500.0,42.79,6.0312,0.006,-0.007,-0.01,55.0,58.0,55.0,13.4,1504.3,136.7,0.1,0.9,1475.146,13.19,0.009,139.4
07,2022-07-05T06:30:00,1500.0,42.79,6.0312,-0.001,-0.007,0.006,59.0,56.0,56.0,13.4,1504.3,136.2,0.1,0.9,1475.185,13.19,0.007,188.1
07,2022-07-05T07:00:00,1500.0,42.79,6.0312,-0.004,-0.009,-0.003,66.0,54.0,58.0,13.4,1504.3,136.8,0.1,0.8,1475.189,13.19,0.009,204.0
07,2022-07-05T07:30:00,1500.0,42.79,6.0312,-0.017,-0.01,-0.006,56.0,57.0,59.0,13.4,1504.4,141.6,0.1,0.8,1475.183,13.2,0.019,239.5
07,2022-07-05T08:00:00,1500.0,42.79,6.0312,-0.003,-0.003,0.0,52.0,53.0,59.0,13.4,1504.4,138.4,0.2,0.9,1475.19,13.2,0.004,225.0
07,2022-07-05T08:30:00,1500.0,42.79,6.0312,-0.01,0.007,0.008,57.0,56.0,60.0,13.4,1504.4,128.2,0.2,0.9,1475.189,13.2,0.012,305.0
07,2022-07-05T09:00:00,1500.0,42.79,6.0312,-0.006,0.009,0.0,55.0,56.0,55.0,13.4,1504.4,130.4,0.2,0.8,1475.217,13.2,0.01,326.3
07,2022-07-05T09:30:00,1500.0,42.79,6.0312,-0.004,0.005,0.0,58.0,59.0,57.0,13.4,1504.4,133.4,0.2,0.9,1475.245,13.2,0.006,321.3
07,2022-07-05T10:00:00,1500.0,42.79,6.0312,-0.002,0.015,0.0,59.0,56.0,59.0,13.4,1504.4,130.0,0.2,0.8,1475.226,13.2,0.015,352.4
07,2022-07-05T10:30:00,1500.0,42.79,6.0312,-0.018,0.006,0.008,54.0,58.0,55.0,13.4,1504.4,124.7,0.2,0.7,1475.244,13.2,0.018,288.4
07,2022-07-05T11:00:00,1500.0,42.79,6.0312,-0.005,0.017,0.007,57.0,55.0,58.0,13.4,1504.4,118.0,-0.1,0.8,1475.237,13.2,0.017,343.6
07,2022-07-05T11:30:00,1500.0,42.79,6.0312,-0.006,0.023,0.009,55.0,59.0,57.0,13.4,1504.3,114.5,-0.1,0.8,1475.246,13.19,0.023,345.4
07,2022-07-05T12:00:00,1500.0,42.79,6.0312,-0.005,0.018,-0.014,55.0,59.0,54.0,13.4,1504.3,114.7,0.2,1.0,1475.201,13.19,0.018,344.5
07,2022-07-05T12:30:00,1500.0,42.79,6.0312,-0.002,0.014,0.011,58.0,56.0,56.0,13.4,1504.3,119.4,0.0,0.7,1475.179,13.19,0.014,351.9
07,2022-07-05T13:00:00,1500.0,42.79,6.0312,-0.011,0.021,-0.022,54.0,57.0,56.0,13.4,1504.3,117.1,-0.1,0.8,1475.184,13.19,0.023,332.4
07,2022-07-05T13:30:00,1500.0,42.79,6.0312,-0.016,0.019,-0.007,55.0,57.0,55.0,13.4,1504.4,108.9,0.1,0.9,1475.171,13.2,0.024,319.9
07,2022-07-05T14:00:00,1500.0,42.79,6.0312,-0.015,0.019,0.009,57.0,60.0,58.0,13.4,1504.4,108.7,0.2,0.7,1475.207,13.2,0.024,321.7
07,2022-07-05T14:30:00,1500.0,42.79,6.0312,-0.015,0.033,-0.004,55.0,57.0,57.0,13.4,1504.4,109.0,0.3,0.9,1475.16,13.2,0.036,335.6
07,2022-07-05T15:00:00,1500.0,42.79,6.0312,-0.012,0.033,0.0,56.0,57.0,55.0,13.4,1504.3,114.6,0.3,1.0,1475.146,13.19,0.035,340.0
07,2022-07-05T15:30:00,1500.0,42.79,6.0312,-0.006,0.034,-0.001,57.0,55.0,57.0,13.4,1504.3,115.2,0.3,1.1,1475.131,13.19,0.034,350.0
07,2022-07-05T16:00:00,1500.0,42.79,6.0312,-0.018,0.028,0.001,54.0,56.0,57.0,13.4,1504.3,116.3,0.3,0.8,1475.146,13.19,0.033,327.3
07,2022-07-05T16:30:00,1500.0,42.79,6.0312,-0.011,0.029,0.0,57.0,57.0,56.0,13.4,1504.3,121.1,-0.2,0.9,1475.138,13.19,0.031,339.2
07,2022-07-05T17:00:00,1500.0,42.79,6.0312,-0.017,0.035,0.004,55.0,56.0,57.0,13.4,1504.4,130.9,0.2,0.8,1475.128,13.2,0.038,334.1
07,2022-07-05T17:30:00,1500.0,42.79,6.0312,-0.014,0.036,-0.01,55.0,58.0,56.0,13.4,1504.3,135.6,0.3,0.8,1475.145,13.19,0.038,338.8
07,2022-07-05T18:00:00,1500.0,42.79,6.0312,-0.02,0.052,0.012,57.0,58.0,57.0,13.4,1504.3,134.2,0.3,0.8,1475.124,13.19,0.055,339.0
07,2022-07-05T18:30:00,1500.0,42.79,6.0312,-0.009,0.054,-0.004,56.0,57.0,57.0,13.4,1504.3,138.5,0.0,0.9,1475.131,13.19,0.054,350.5
07,2022-07-05T19:00:00,1500.0,42.79,6.0312,0.001,0.044,-0.004,57.0,57.0,58.0,13.4,1504.3,135.5,0.3,0.8,1475.172,13.19,0.044,1.3
07,2022-07-05T19:30:00,1500.0,42.79,6.0312,-0.005,0.034,0.007,57.0,58.0,57.0,13.4,1504.3,143.0,0.1,0.7,1475.134,13.18,0.034,351.6
07,2022-07-05T20:00:00,1500.0,42.79,6.0312,-0.004,0.047,0.004,58.0,58.0,57.0,13.4,1504.3,151.9,0.1,0.8,1475.184,13.18,0.047,355.1
07,2022-07-05T20:30:00,1500.0,42.79,6.0312,0.006,0.048,0.0,56.0,60.0,57.0,13.4,1504.3,154.6,-0.1,1.0,1475.246,13.18,0.048,7.1
07,2022-07-05T21:00:00,1500.0,42.79,6.0312,0.0,0.043,0.006,56.0,57.0,57.0,13.4,1504.3,148.7,0.1,0.8,1475.235,13.18,0.043,0.0
07,2022-07-05T21:30:00,1500.0,42.79,6.0312,-0.006,0.041,0.003,56.0,56.0,57.0,13.4,1504.3,141.5,0.1,0.8,1475.256,13.17,0.041,351.7
07,2022-07-05T22:00:00,1500.0,42.79,6.0312,0.004,0.044,0.001,57.0,58.0,56.0,13.4,1504.3,146.7,0.3,1.0,1475.264,13.17,0.044,5.2
07,2022-07-05T22:30:00,1500.0,42.79,6.0312,0.003,0.027,0.0,58.0,58.0,55.0,13.4,1504.3,141.4,0.2,1.1,1475.326,13.18,0.027,6.3
07,2022-07-05T23:00:00,1500.0,42.79,6.0312,-0.003,0.019,0.014,59.0,57.0,57.0,13.4,1504.3,139.1,0.2,0.8,1475.305,13.18,0.019,351.0
